Арыктах

Россия / Республика Саха (Якутия)     63°34′03″N   125°13′56″E
темп.,
°C
ветер,
м/с
пор.,
м/с
влажн.,
%
обл.,
%
осадки,
мм/ч
давл.,
гПа
погр.,
м
1 марта, пн
пн100:00−27зсз41095100 0.1 1026652
03:00−28зсз41095100 0.2 1026460
06:00−28зсз4995100 0.1 1026429
09:00−29з5993100 0.2 1026391
12:00−28з5892100 0.0 1027436
15:00−28з4791100 0.0 1026466
18:00−29з3793100 0.0 1027349
21:00−31з3795100 0.0 1027220
2 марта, вт
вт200:00−34з249693 0.0 102687
03:00−34з249696 0.0 1027121
06:00−35з2397100 0.0 102668
09:00−34з249796 0.0 1026141
12:00−31зсз2392100 0.0 1026297
15:00−29зсз1188100 0.0 1025388
18:00−34сз119692 0.0 102619
21:00−37сз119874 0.0 102619
3 марта, ср
ср300:00−37зсз119674 0.0 102519
03:00−38сз129769 0.0 102519
06:00−38зсз229875 0.0 102418
09:00−37зсз249781 0.0 1024102
12:00−33зсз3496100 0.0 1023289
15:00−31зсз3595100 0.1 1022383
18:00−31зсз3796100 0.1 1022423
21:00−31зсз4996100 0.3 1021494
4 марта, чт
чт400:00−31зсз5995100 0.1 1019595
03:00−31зсз51095100 0.3 1019752
06:00−31сз4996100 0.1 1018743
09:00−31сз5994100 0.3 1019745
12:00−30сз5790100 0.1 1020813
15:00−30сз4789100 0.2 1021915
18:00−32сз3894100 0.0 1023262
21:00−35зсз499487 0.1 1025198
5 марта, пт
пт500:00−36зсз499561 0.0 1025205
03:00−36зсз499569 0.0 1026242
06:00−36зсз41094100 0.0 1027286
09:00−36зсз5109494 0.0 1027319
12:00−32зсз589492 0.0 1028392
15:00−30зсз599396 0.0 1028472
18:00−32зсз41094100 0.0 1029372
21:00−32зсз4109584 0.0 1029282